EW5800 Weather Reports


time (UTC)temp
C
wind
direction
speed
KPH
gust
KPH
rain 1hr
cm
rain 24hr
cm
rain mn
cm
humidity
%
barometer
mb
20260503181526 25 111 0.0 1.6 0.00 0.00 0.00 45 1013.1
20260503180035 24 189 0.0 1.6 0.00 0.00 0.00 46 1013.2
20260503174523 24 178 0.0 1.6 0.00 0.00 0.00 48 1013.3
20260503173022 23 166 0.0 3.2 0.00 0.00 0.00 49 1013.4
20260503171524 23 158 0.0 1.6 0.00 0.00 0.00 50 1013.6
20260503081515 12 283 0.0 0.0 0.00 0.03 0.00 80 1013.7
20260503071611 13 333 0.0 0.0 0.00 0.03 0.00 79 1013.5
20260503060112 16 13 0.0 0.0 0.00 0.03 0.03 69 1013.1
20260503054614 16 13 0.0 0.0 0.00 0.03 0.03 69 1013.1
20260503053053 17 13 0.0 0.0 0.00 0.03 0.03 66 1013.0
20260503051551 17 77 0.0 0.0 0.00 0.03 0.03 66 1013.0
20260503050051 17 77 0.0 0.0 0.00 0.03 0.03 67 1013.0
20260503044551 17 78 0.0 0.0 0.00 0.03 0.03 67 1012.8
20260503043052 17 79 0.0 0.0 0.00 0.03 0.03 67 1012.8
20260503041549 17 78 0.0 0.0 0.00 0.03 0.03 67 1012.7
20260503040056 17 79 0.0 0.0 0.00 0.03 0.03 66 1012.6
20260503034549 18 78 0.0 0.0 0.00 0.03 0.03 64 1012.5
20260503033049 18 78 0.0 0.0 0.00 0.03 0.03 63 1012.4
20260503031547 18 78 0.0 0.0 0.00 0.03 0.03 63 1012.3
20260503030050 19 79 0.0 0.0 0.00 0.03 0.03 59 1012.3
20260503024546 19 79 0.0 0.0 0.00 0.03 0.03 60 1012.2
20260503023055 20 79 0.0 0.0 0.00 0.03 0.03 60 1012.2
20260503021553 20 79 0.0 0.0 0.00 0.03 0.03 60 1012.2
20260503020050 20 79 0.0 0.0 0.00 0.03 0.03 59 1012.3
20260503014544 21 79 0.0 1.6 0.00 0.03 0.03 58 1012.4
20260503013041 21 288 0.0 0.0 0.00 0.03 0.03 54 1012.5
20260503011540 21 288 0.0 0.0 0.00 0.03 0.03 53 1012.6
20260503010039 22 281 0.0 0.0 0.00 0.03 0.03 52 1012.6
20260503004553 22 345 0.0 4.8 0.00 0.03 0.03 51 1012.6
20260503003053 23 38 0.0 8.0 0.00 0.03 0.03 49 1012.7
20260503001536 23 65 0.0 8.0 0.00 0.03 0.03 48 1012.8
20260503000034 24 281 0.0 11.3 0.00 0.03 0.03 45 1013.1
20260502234532 25 316 0.0 8.0 0.00 0.03 0.03 44 1013.2
20260502233030 25 128 0.0 4.8 0.00 0.03 0.03 43 1013.3
20260502231527 24 309 0.0 4.8 0.00 0.03 0.03 44 1013.5
20260502230025 25 44 0.0 9.7 0.00 0.03 0.03 45 1013.6
20260502224532 25 311 0.0 6.4 0.00 0.03 0.03 45 1013.9
20260502223021 25 355 0.0 8.0 0.00 0.03 0.03 44 1014.1
20260502221518 25 299 0.0 1.6 0.00 0.03 0.03 43 1014.4
20260502220017 23 45 0.0 4.8 0.00 0.03 0.03 48 1014.6
20260502214514 23 84 0.0 6.4 0.00 0.03 0.03 48 1014.8
20260502213014 23 266 0.0 8.0 0.00 0.03 0.03 44 1015.1
20260502211514 23 143 0.0 4.8 0.00 0.03 0.03 49 1015.1
20260502210010 22 323 0.0 9.7 0.00 0.03 0.03 52 1015.3
20260502204509 23 3 0.0 8.0 0.00 0.03 0.03 50 1015.4
20260502203008 22 323 1.6 9.7 0.00 0.03 0.03 50 1015.6
20260502201511 23 321 0.0 4.8 0.00 0.03 0.03 54 1015.6
20260502200008 23 305 0.0 8.0 0.00 0.03 0.03 55 1015.8
20260502194507 23 41 0.0 6.4 0.00 0.03 0.03 53 1016.0
20260502193006 23 309 0.0 8.0 0.00 0.03 0.03 53 1015.9
20260502191505 24 121 0.0 3.2 0.00 0.03 0.03 49 1016.1
20260502190005 23 143 0.0 8.0 0.00 0.03 0.03 50 1016.1
20260502184503 23 85 0.0 8.0 0.00 0.03 0.03 50 1016.3
20260502183002 23 122 0.0 3.2 0.00 0.03 0.03 51 1016.2